Location: Dampvalley
(47.9094°N, 6.1967°E)
Time: 03:27:08
(UTC+00:00)

N. Korean satellite - Pass Details

Date: 03 December 2022
Orbit: 407 x 444 km, 97.3° (Epoch: 28 January)

Event Time Altitude Azimuth Distance (km) Brightness Sun altitude
Rises 16:13:26 0° 176° (S) 2,447 10.5 -5.1°
Reaches altitude 10° 16:15:28 10° 181° (S) 1,589 9.6 -5.4°
Maximum altitude 16:18:49 54° 260° (W) 570 7.4 -5.9°
Drops below altitude 10° 16:22:15 10° 339° (NNW) 1,629 9.2 -6.4°
Sets 16:24:22 0° 344° (NNW) 2,516 10.1 -6.7°
